sat.trackr.live / text

‹ back to catalog

STARLINK-3278

NORAD 50830 · 2022-001AD

PAYLOAD ACTIVE UNKNOWN

§ Identity

Operator
Country
US
Launch date
2022-01-06
Launch site
AFETR
Launch vehicle
Mass (kg)
RCS (m²)

Purposes: comms

External: N2YO · Heavens-Above · Gunter

§ Orbital elements

Epoch: 2026-09-19T21:24:37.641312Z

Period
93.85 min
Inclination
53.1612°
Eccentricity
0.0000941
Mean motion
15.34393508 rev/d
Perigee alt
462.1 km
Apogee alt
463.4 km
Semi-major
6,840.9 km
B*
-2.2938e-6
RAAN
12.2009°
Arg perigee
82.5061°
Mean anomaly
277.6048°
Rev number
25,979

§ Raw data

STARLINK-32781 50830U 22001AD  26262.89210233 -.00000453  00000+0 -22938-5 0  99992 50830  53.1612  12.2009 0000941  82.5061 277.6048 15.34393508259793

JSON: /api/v1/satellites/50830 · /tle

For live sub-satellite position, see the globe view (requires WebGL).

§ Visibility from observer

Set your observer location to see the next 7 days of passes ≥ 10°. The values pass through the URL so the page stays shareable.

No JS? Fill the form by hand. The geolocation button needs JavaScript.